Rensselaer, IN

12:41 PM CDT on October 17, 2017 (GMT -0500)
Jasper County

Weather History for KRZL - May, 2012

Change the Weather History Date:

Monday, May 14, 2012

  Actual Average (KIKK) Record (KIKK)
Temperature  
Mean Temperature 65 °F -  
Max Temperature 77 °F 71 °F 89 °F (1982)
Min Temperature 53 °F 48 °F 34 °F (1978)
Growing Degree Days 15 (Base 50)    
Moisture  
Dew Point 31 °F    
Average Humidity 30    
Maximum Humidity 47    
Minimum Humidity 12    
Precipitation  
Precipitation 0.00 in - - ()
Sea Level Pressure  
Sea Level Pressure 30.07 in    
Wind  
Wind Speed 6 mph (North)    
Max Wind Speed 13 mph    
Max Gust Speed 18 mph    
Visibility 10 miles    
Events      
Averages and records for this station are not official NWS values.
T = Trace of Precipitation, MM = Missing Value Source: NWS Daily Summary

Daily Weather History Graph

Daily Weather History Graph

Search for Another Location

Airport or City:

Trip Planner

Search our weather history database for the weather conditions in past years. The results will help you decide how hot, cold, wet, or windy it might be!

Date:

Astronomy

May. 14, 2012 Rise Set
Actual Time 5:31 AM CDT 7:59 PM CDT
Civil Twilight 5:00 AM CDT 8:30 PM CDT
Nautical Twilight 4:21 AM CDT 9:09 PM CDT
Astronomical Twilight 3:38 AM CDT 9:52 PM CDT
Moon 2:08 AM CDT (5/14) 2:16 PM CDT (5/14)
Length of Visible Light 15h 30m
Length of Day
14h 27m
Waning Crescent, 32% of the Moon is Illuminated
May 14
Waning Crescent
May 20
New
May 28
First Quarter
Jun 4
Full
Jun 11
Last Quarter

Hourly Weather History & Observations

Time (CDT) Temp. Dew Point Humidity Pressure Visibility Wind Dir Wind Speed Gust Speed Precip Events Conditions
12:15 AM 57.2 °F 30.2 °F 36% 30.11 in 10.0 mi North 9.2 mph - N/A   Overcast
12:35 AM 59.0 °F 30.2 °F 34% 30.11 in 10.0 mi North 9.2 mph - N/A   Overcast
12:55 AM 59.0 °F 30.2 °F 34% 30.10 in 10.0 mi North 6.9 mph - N/A   Overcast
1:15 AM 57.2 °F 30.2 °F 36% 30.10 in 10.0 mi NNE 5.8 mph - N/A   Mostly Cloudy
1:35 AM 55.4 °F 32.0 °F 41% 30.09 in 10.0 mi North 5.8 mph - N/A   Scattered Clouds
1:55 AM 55.4 °F 32.0 °F 41% 30.09 in 10.0 mi North 4.6 mph - N/A   Clear
2:35 AM 55.4 °F 32.0 °F 41% 30.09 in 10.0 mi NNE 5.8 mph - N/A   Clear
2:55 AM 53.6 °F 32.0 °F 44% 30.09 in 10.0 mi NNE 4.6 mph - N/A   Clear
3:15 AM 53.6 °F 32.0 °F 44% 30.09 in 10.0 mi NE 4.6 mph - N/A   Clear
3:35 AM 53.6 °F 32.0 °F 44% 30.09 in 10.0 mi North 4.6 mph - N/A   Clear
3:55 AM 53.6 °F 32.0 °F 44% 30.09 in 10.0 mi NNE 5.8 mph - N/A   Clear
4:15 AM 53.6 °F 30.2 °F 41% 30.09 in 10.0 mi Calm Calm - N/A   Clear
4:35 AM 53.6 °F 32.0 °F 44% 30.09 in 10.0 mi North 3.5 mph - N/A   Clear
4:55 AM 53.6 °F 30.2 °F 41% 30.09 in 10.0 mi North 5.8 mph - N/A   Scattered Clouds
5:15 AM 53.6 °F 30.2 °F 41% 30.09 in 10.0 mi NNE 3.5 mph - N/A   Scattered Clouds
5:35 AM 53.6 °F 30.2 °F 41% 30.09 in 10.0 mi North 3.5 mph - N/A   Clear
6:15 AM 53.6 °F 33.8 °F 47% 30.10 in 10.0 mi North 4.6 mph - N/A   Clear
6:35 AM 53.6 °F 32.0 °F 44% 30.11 in 10.0 mi North 4.6 mph - N/A   Clear
6:55 AM 55.4 °F 33.8 °F 44% 30.11 in 10.0 mi NNE 3.5 mph - N/A   Clear
7:15 AM 57.2 °F 33.8 °F 41% 30.11 in 7.0 mi Calm Calm - N/A   Clear
7:35 AM 59.0 °F 35.6 °F 42% 30.11 in 10.0 mi NE 5.8 mph - N/A   Clear
7:55 AM 60.8 °F 37.4 °F 42% 30.11 in 10.0 mi NNE 4.6 mph - N/A   Clear
8:15 AM 62.6 °F 41.0 °F 45% 30.11 in 10.0 mi NNE 3.5 mph - N/A   Clear
8:35 AM 64.4 °F 42.8 °F 45% 30.11 in 10.0 mi NNE 6.9 mph - N/A   Clear
8:55 AM 68.0 °F 42.8 °F 40% 30.11 in 10.0 mi North 5.8 mph - N/A   Clear
9:15 AM 68.0 °F 41.0 °F 37% 30.11 in 10.0 mi North 9.2 mph - N/A   Clear
9:55 AM 69.8 °F 39.2 °F 33% 30.11 in 10.0 mi NNE 9.2 mph - N/A   Clear
10:15 AM 69.8 °F 37.4 °F 31% 30.11 in 10.0 mi NNE 9.2 mph - N/A   Clear
10:35 AM 71.6 °F 35.6 °F 27% 30.11 in 10.0 mi NNE 8.1 mph - N/A   Clear
10:55 AM 71.6 °F 33.8 °F 25% 30.10 in 10.0 mi NNE 10.4 mph - N/A   Clear
11:15 AM 73.4 °F 32.0 °F 22% 30.10 in 10.0 mi NNE 8.1 mph 18.4 mph N/A   Clear
11:35 AM 73.4 °F 32.0 °F 22% 30.09 in 10.0 mi NE 10.4 mph - N/A   Clear
11:55 AM 73.4 °F 32.0 °F 22% 30.09 in 10.0 mi North 6.9 mph - N/A   Clear
12:15 PM 73.4 °F 32.0 °F 22% 30.08 in 10.0 mi North 12.7 mph - N/A   Clear
12:35 PM 73.4 °F 30.2 °F 20% 30.08 in 10.0 mi NNW 4.6 mph - N/A   Clear
12:55 PM 75.2 °F 30.2 °F 19% 30.07 in 10.0 mi North 8.1 mph - N/A   Clear
1:15 PM 75.2 °F 30.2 °F 19% 30.06 in 10.0 mi Calm Calm - N/A   Clear
1:35 PM 77.0 °F 30.2 °F 18% 30.06 in 10.0 mi NNE 9.2 mph - N/A   Clear
1:55 PM 77.0 °F 28.4 °F 17% 30.06 in 10.0 mi NW 6.9 mph - N/A   Clear
2:15 PM 77.0 °F 26.6 °F 16% 30.05 in 10.0 mi NW 6.9 mph - N/A   Clear
2:35 PM 77.0 °F 26.6 °F 16% 30.04 in 10.0 mi North 5.8 mph - N/A   Clear
3:15 PM 77.0 °F 26.6 °F 16% 30.04 in 10.0 mi WNW 3.5 mph - N/A   Clear
3:35 PM 77.0 °F 26.6 °F 16% 30.03 in 10.0 mi NNW 6.9 mph - N/A   Clear
3:55 PM 77.0 °F 21.2 °F 12% 30.03 in 10.0 mi WNW 6.9 mph - N/A   Clear
4:15 PM 77.0 °F 21.2 °F 12% 30.03 in 10.0 mi NW 4.6 mph - N/A   Clear
4:35 PM 77.0 °F 23.0 °F 13% 30.03 in 10.0 mi NW 8.1 mph - N/A   Clear
4:55 PM 77.0 °F 24.8 °F 14% 30.02 in 10.0 mi West 9.2 mph - N/A   Clear
5:15 PM 77.0 °F 26.6 °F 16% 30.02 in 10.0 mi NW 10.4 mph - N/A   Clear
5:35 PM 77.0 °F 26.6 °F 16% 30.02 in 10.0 mi North 8.1 mph - N/A   Clear
5:55 PM 77.0 °F 23.0 °F 13% 30.02 in 10.0 mi NNW 6.9 mph - N/A   Clear
6:15 PM 75.2 °F 26.6 °F 17% 30.01 in 10.0 mi North 8.1 mph - N/A   Clear
6:55 PM 73.4 °F 26.6 °F 18% 30.02 in 10.0 mi NNE 8.1 mph - N/A   Clear
7:15 PM 71.6 °F 26.6 °F 19% 30.02 in 10.0 mi NNE 6.9 mph - N/A   Clear
7:35 PM 69.8 °F 28.4 °F 21% 30.02 in 10.0 mi NNE 5.8 mph - N/A   Clear
7:55 PM 68.0 °F 28.4 °F 23% 30.02 in 10.0 mi NNE 5.8 mph - N/A   Clear
8:15 PM 64.4 °F 30.2 °F 28% 30.03 in 10.0 mi NE 3.5 mph - N/A   Clear
8:35 PM 64.4 °F 28.4 °F 26% 30.03 in 10.0 mi Calm Calm - N/A   Clear
8:55 PM 64.4 °F 28.4 °F 26% 30.03 in 10.0 mi Calm Calm - N/A   Clear
9:15 PM 64.4 °F 28.4 °F 26% 30.03 in 10.0 mi Calm Calm - N/A   Clear
9:35 PM 64.4 °F 28.4 °F 26% 30.04 in 10.0 mi ESE 3.5 mph - N/A   Clear
9:55 PM 62.6 °F 30.2 °F 30% 30.04 in 10.0 mi Calm Calm - N/A   Clear
10:15 PM 62.6 °F 30.2 °F 30% 30.04 in 10.0 mi Calm Calm - N/A   Clear
10:55 PM 60.8 °F 30.2 °F 31% 30.03 in 10.0 mi Calm Calm - N/A   Clear
11:15 PM 60.8 °F 32.0 °F 34% 30.03 in 10.0 mi Calm Calm - N/A   Clear
11:35 PM 60.8 °F 30.2 °F 31% 30.02 in 10.0 mi Calm Calm - N/A   Clear
11:55 PM 57.2 °F 35.6 °F 44% 30.02 in 10.0 mi Calm Calm - N/A   Clear